Flag for Myanmar Weather past 2 weeks in Yangon, Myanmar

Now
81 °F

Mostly cloudy.


Feels Like: 88 °F
Forecast: 76 / 83 °F
Wind: 5 mph from East

Location: Rangoon Airport

Current Time: Jul 23, 2014 at 12:25:43 PM

Latest Report: Jul 23, 2014 at 12:00 PM


Visibility: 4 mi

Pressure: 29.74 "Hg

Humidity: 94%

Dew point: 79 °F

Location of YangonLocation

Historic Weather in Yangon — Graph

°F

Yangon temperature yesterday

Maximum temperature yesterday: 86 °F (at 2:30 PM)
Minimum temperature yesterday: 75 °F (at 5:00 AM)
Average temperature yesterday: 79 °F

Past Weeks' High & Low Weather Summary

 TemperatureHumidityPressure
High88 °F (Jul 8, 1:00 PM)100% (Jul 8, 3:00 PM)29.80 "Hg (Jul 8, 3:00 PM)
Low73 °F (Jul 21, 5:30 AM)66% (Jul 8, 2:00 PM)29.56 "Hg (Jul 12, 4:00 PM)
Average80 °F91%29.69 "Hg
* Reported Jul 8 10:30 AM — Jul 23 11:00 AM, Yangon, Weather by CustomWeather, © 2014

Note: Actual official high and low records may vary slightly from our data, if they occured in-between our weather recording intervals... More about our weather records

Advertising

Yangon weather history for previous 24 hours

 ConditionsComfort  
Time TempWeatherWind HumidityBarometerVisibility
11:00 AM
Jul 23
81 °FMostly cloudy.3 mph84%29.77 "Hg4 mi
10:30 AM81 °FMostly cloudy.3 mph84%29.77 "Hg4 mi
10:00 AM82 °FMostly cloudy.3 mph84%29.77 "Hg4 mi
9:30 AM81 °FMostly cloudy.3 mph84%29.77 "Hg4 mi
9:00 AM81 °FMostly cloudy.2 mph84%29.77 "Hg4 mi
8:30 AM79 °FMostly cloudy.3 mph89%29.74 "Hg4 mi
8:00 AM79 °FMostly cloudy.3 mph89%29.74 "Hg4 mi
7:30 AM77 °FMostly cloudy.3 mph89%29.71 "Hg4 mi
7:00 AM77 °FMostly cloudy.2 mph100%29.71 "Hg4 mi
6:30 AM75 °FMostly cloudy.3 mph100%N/A4 mi
11:00 PM
Jul 22
79 °FPassing clouds.3 mph89%29.77 "Hg4 mi
10:30 PM79 °FPassing clouds.3 mph89%29.77 "Hg4 mi
10:00 PM79 °FPassing clouds.6 mph89%29.77 "Hg4 mi
9:30 PM79 °FPassing clouds.6 mph89%29.74 "Hg4 mi
9:00 PM79 °FPassing clouds.6 mph89%29.74 "Hg4 mi
8:00 PM79 °FPassing clouds.6 mph89%29.74 "Hg4 mi
7:30 PM81 °FPassing clouds.3 mph84%29.71 "Hg4 mi
7:00 PM81 °FPartly sunny.3 mph84%29.71 "Hg4 mi
6:30 PM82 °FMostly cloudy.3 mph84%29.68 "Hg4 mi
6:00 PM82 °FMostly cloudy.3 mph84%29.68 "Hg4 mi
5:30 PM82 °FMostly cloudy.3 mph84%29.68 "Hg4 mi
5:00 PM82 °FMostly cloudy.6 mph84%29.68 "Hg4 mi
4:30 PM82 °FMostly cloudy.6 mph84%29.68 "Hg4 mi
4:00 PM82 °FMostly cloudy.10 mph84%29.68 "Hg4 mi
3:30 PM84 °FMostly cloudy.9 mph74%29.71 "Hg4 mi
3:00 PM84 °FMostly cloudy.6 mph74%29.71 "Hg4 mi
2:30 PM86 °FMostly cloudy.12 mph75%29.71 "Hg4 mi
2:00 PM84 °FMostly cloudy.12 mph74%29.71 "Hg4 mi
1:30 PM84 °FMostly cloudy.3 mph74%29.71 "Hg4 mi
1:00 PM84 °FMostly cloudy.8 mph74%29.74 "Hg4 mi
12:00 PM81 °FMostly cloudy.6 mph84%29.74 "Hg4 mi
Weather by CustomWeather, © 2014

See weather overviewHow to use our weather pages